[[{"header":{"parameterUnit":"m.s-1","parameterCategory":1,"la1":30.2991,"la2":30.254,"lo1":-89.0895,"lo2":-89.0444,"dy":0.0017,"dx":0.0017,"nx":28,"ny":28,"refTime":"2023-11-10T03:00:00:Z","depth":0,"parameterNumber":2,"parameterNumberName":"U-component_of_WINDS"},"data":[0,0,0,0,0,0,0,0,0,0,0,0,0,0,0,0,0,0,0,0,0,0,0,0,0,0,0,0,0,0,0,0,0,0,0,0,0,0,0,0,0,0,0,0,0,0,0,0,0,0,0,0,0,0,0,0,0,0,-3.6754,-3.6753,0,-3.6689,-3.6688,-3.6688,-3.6568,-3.6566,-3.6563,-3.6561,-3.6498,-3.6499,-3.6499,0,0,0,0,0,0,0,0,0,0,0,0,0,-3.6776,-3.6776,-3.6754,-3.6753,-3.6752,-3.6689,-3.6688,-3.6688,-3.6568,-3.6565,-3.6563,-3.656,-3.6498,-3.6499,-3.6499,0,0,0,0,0,0,0,0,0,0,0,0,0,-3.6744,-3.6776,-3.6754,-3.6685,-3.6678,-3.6689,-3.6688,-3.6687,-3.6569,-3.6565,-3.6562,-3.6559,-3.6498,-3.6499,-3.6499,-3.6574,0,0,-3.6502,-3.6502,0,0,0,0,0,0,0,0,-3.6746,-3.6744,-3.6696,-3.669,-3.6682,-3.6633,-3.6673,-3.6649,-3.657,-3.6611,-3.6561,-3.6557,-3.6546,-3.6543,-3.6538,-3.6571,-3.6568,-3.6502,-3.6502,-3.6502,-3.6503,0,0,0,0,0,0,0,-3.6749,-3.6746,-3.6728,-3.6695,-3.6687,-3.6658,-3.665,-3.6668,-3.6599,-3.6607,-3.6598,-3.6592,-3.6542,-3.6538,-3.6536,-3.6567,-3.6502,-3.6502,-3.6503,-3.6503,-3.6657,-3.666,0,0,0,0,0,0,-3.676,-3.6748,-3.673,-3.6726,-3.6706,-3.666,-3.6651,-3.6652,-3.6598,-3.6586,-3.6595,-3.6586,-3.6538,-3.6535,-3.6533,-3.6617,-3.6502,-3.6503,-3.6504,-3.6653,-3.6658,-3.6662,0,0,0,0,0,0,-3.6761,-3.676,-3.6733,-3.6735,-3.6729,-3.6664,-3.6666,-3.6653,-3.6649,-3.6589,-3.6576,-3.6603,-3.6535,-3.6532,-3.6564,-3.6613,-3.6503,-3.6504,-3.6649,-3.6655,-3.666,-3.6785,0,0,0,0,0,0,-3.6763,-3.6761,-3.6788,-3.6736,-3.673,-3.6765,-3.6669,-3.6654,-3.665,-3.6639,-3.6594,-3.6583,-3.6532,-3.6564,-3.6565,-3.6612,-3.6505,-3.6644,-3.6652,-3.6658,-3.6777,-3.6794,-3.681,0,0,0,0,0,-3.6764,-3.6827,-3.679,-3.6789,-3.6762,-3.6768,-3.6764,-3.6703,-3.6655,-3.6682,-3.6643,-3.6585,-3.6607,-3.6568,-3.6568,-3.6617,-3.6641,-3.665,-3.6658,-3.6769,-3.6791,-3.6809,0,0,0,0,0,0,-3.6888,-3.6819,-3.6778,-3.6825,-3.6803,-3.6748,-3.678,-3.6728,-3.672,-3.671,-3.6636,-3.6627,-3.6669,-3.6645,-3.6603,-3.6686,-3.6615,-3.6624,-3.67,-3.672,-3.6736,-3.6742,-3.6505,0,0,0,0,0,-3.692,-3.693,-3.6869,-3.6918,-3.6908,-3.6847,-3.6847,-3.6802,-3.6776,-3.6767,-3.673,-3.6709,-3.671,-3.6713,-3.6712,-3.6772,-3.6761,-3.6805,-3.6822,-3.6836,-3.6845,-3.6875,-3.6894,-3.6689,-3.6689,-3.6688,0,0,-3.6988,-3.6952,-3.6963,-3.6942,-3.6919,-3.6932,-3.6839,-3.6857,-3.6865,-3.6769,-3.6797,-3.677,-3.6741,-3.6787,-3.6806,-3.6769,-3.6898,-3.6846,-3.6858,-3.6859,-3.6885,-3.6905,-3.6922,-3.6694,-3.6693,-3.6692,0,0,-3.7119,-3.7092,-3.7129,-3.7108,-3.7075,-3.7033,-3.7042,-3.6994,-3.6972,-3.6998,-3.6926,-3.6936,-3.6941,-3.6923,-3.6915,-3.7037,-3.6984,-3.7039,-3.7126,-3.7156,-3.7173,-3.7187,-3.7231,-3.7248,-3.7047,-3.7048,-3.7048,0,-3.7209,-3.7223,-3.7155,-3.7177,-3.717,-3.7082,-3.712,-3.7103,-3.7072,-3.7069,-3.7028,-3.7032,-3.7006,-3.7047,-3.7077,-3.7072,-3.7081,-3.7045,-3.7176,-3.7189,-3.7201,-3.7243,-3.726,-3.7055,-3.7054,-3.7053,-3.7053,0,-3.7335,-3.7347,-3.7381,-3.7352,-3.7348,-3.7378,-3.7315,-3.732,-3.7275,-3.7238,-3.7266,-3.7232,-3.7222,-3.7228,-3.7184,-3.7263,-3.7241,-3.7189,-3.7117,-3.7229,-3.7267,-3.7282,-3.7065,-3.7062,-3.706,-3.7059,0,0,-3.7544,-3.7476,-3.749,-3.7475,-3.7431,-3.7439,-3.7465,-3.7454,-3.746,-3.7441,-3.7461,-3.7467,-3.7418,-3.7408,-3.7362,-3.7388,-3.7489,-3.7332,-3.7331,-3.7364,-3.7574,-3.7615,-3.7634,-3.7452,-3.7455,-3.7457,-3.7577,0,-3.7667,-3.7706,-3.7645,-3.7699,-3.7709,-3.7625,-3.7647,-3.7623,-3.7589,-3.7593,-3.7554,-3.756,-3.7494,-3.7488,-3.751,-3.7472,-3.753,-3.7462,-3.7471,-3.7472,-3.7483,-3.7654,-3.7697,-3.7812,-3.7591,-3.7593,-3.7595,0,-3.7815,-3.7802,-3.7857,-3.7809,-3.7811,-3.7832,-3.7817,-3.7822,-3.7793,-3.7765,-3.7755,-3.7699,-3.7721,-3.765,-3.768,-3.7635,-3.7635,-3.7617,-3.762,-3.762,-3.7542,-3.766,-3.7847,-3.7865,-3.7618,-3.7616,-3.7614,0,-3.7964,-3.796,-3.7992,-3.7982,-3.7927,-3.7944,-3.7922,-3.7889,-3.7886,-3.7873,-3.787,-3.786,-3.7856,-3.7849,-3.7793,-3.7746,-3.783,-3.7754,-3.7809,-3.7811,-3.7833,-3.7832,-3.8024,-3.783,-3.783,-3.783,-3.7829,0,-3.8108,-3.8145,-3.8058,-3.8078,-3.8117,-3.8046,-3.8087,-3.8056,-3.8028,-3.8041,-3.7967,-3.7981,-3.7905,-3.7911,-3.7866,-3.7898,-3.7896,-3.7876,-3.7864,-3.7883,-3.7886,-3.7884,-3.7875,-3.7834,-3.7833,-3.7832,-3.7832,0,-3.8281,-3.8224,-3.8254,-3.8199,-3.8185,-3.8217,-3.817,-3.8186,-3.8146,-3.8164,-3.8164,-3.8102,-3.8104,-3.8047,-3.8038,-3.8008,-3.8061,-3.8034,-3.8071,-3.8063,-3.8122,-3.8118,-3.832,-3.8343,-3.8134,-3.8136,-3.8138,0,-3.8378,-3.8404,-3.8352,-3.8354,-3.8336,-3.8342,-3.8338,-3.8269,-3.8268,-3.8237,-3.8257,-3.8254,-3.8248,-3.8256,-3.8211,-3.8204,-3.8177,-3.8248,-3.8176,-3.8195,-3.818,-3.818,-3.8182,-3.8265,-3.8267,-3.8269,-3.8271,0,-3.8556,-3.8526,-3.8523,-3.8511,-3.8508,-3.8495,-3.8478,-3.8485,-3.8409,-3.8412,-3.8414,-3.8409,-3.84,-3.8398,-3.8382,-3.8359,-3.8304,-3.8294,-3.8307,-3.8328,-3.8349,-3.8339,-3.8114,-3.829,-3.8288,-3.8287,-3.8286,-3.8285,-3.8695,-3.8714,-3.868,-3.868,-3.8658,-3.8643,-3.8656,-3.8617,-3.8617,-3.8604,-3.8563,-3.8571,-3.8541,-3.8514,-3.8496,-3.8502,-3.8467,-3.8486,-3.849,-3.8496,-3.8508,-3.8346,-3.8499,-3.8498,-3.8498,-3.8497,-3.8497,0,-3.887,-3.8844,-3.8843,-3.882,-3.882,-3.8765,-3.8743,-3.8746,-3.8755,-3.873,-3.8725,-3.8727,-3.8724,-3.8678,-3.867,-3.8684,-3.8658,-3.8684,-3.8683,-3.8679,-3.8539,-3.853,-3.8705,-3.8705,-3.8705,-3.8705,-3.8705,-3.8705,-3.8962,-3.8992,-3.8958,-3.8977,-3.895,-3.8957,-3.8949,-3.8935,-3.8915,-3.892,-3.8917,-3.8886,-3.8853,-3.8842,-3.8837,-3.8823,-3.8825,-3.886,-3.8838,-3.8709,-3.8689,-3.867,-3.866,-3.886,-3.8861,-3.8977,-3.8978,-3.8979]},{"header":{"parameterUnit":"m.s-1","parameterCategory":1,"la1":30.2991,"la2":30.254,"lo1":-89.0895,"lo2":-89.0444,"dy":0.0017,"dx":0.0017,"nx":28,"ny":28,"refTime":"2023-11-10T03:00:00:Z","depth":0,"parameterNumber":3,"parameterNumberName":"V-component_of_WINDS"},"data":[0,0,0,0,0,0,0,0,0,0,0,0,0,0,0,0,0,0,0,0,0,0,0,0,0,0,0,0,0,0,0,0,0,0,0,0,0,0,0,0,0,0,0,0,0,0,0,0,0,0,0,0,0,0,0,0,0,0,-5.6031,-5.6032,0,-5.6087,-5.6088,-5.6089,-5.6017,-5.6015,-5.6012,-5.601,-5.6064,-5.6067,-5.6071,0,0,0,0,0,0,0,0,0,0,0,0,0,-5.5857,-5.5861,-5.6031,-5.6032,-5.6033,-5.6087,-5.6088,-5.6089,-5.6018,-5.6015,-5.6012,-5.6009,-5.6062,-5.6067,-5.6072,0,0,0,0,0,0,0,0,0,0,0,0,0,-5.5925,-5.5862,-5.6031,-5.6004,-5.6002,-5.6087,-5.6088,-5.6089,-5.6018,-5.6015,-5.6011,-5.6007,-5.6061,-5.6066,-5.6072,-5.6186,0,0,-5.609,-5.6092,0,0,0,0,0,0,0,0,-5.5921,-5.5931,-5.6007,-5.6006,-5.6004,-5.6041,-5.6046,-5.6121,-5.6019,-5.6012,-5.601,-5.6005,-5.6059,-5.6065,-5.6084,-5.6188,-5.619,-5.609,-5.6094,-5.6096,-5.6098,0,0,0,0,0,0,0,-5.5917,-5.5929,-5.6053,-5.6008,-5.6006,-5.5987,-5.5992,-5.606,-5.6057,-5.6012,-5.6007,-5.6015,-5.6057,-5.6078,-5.6084,-5.6191,-5.609,-5.6095,-5.6099,-5.6101,-5.6389,-5.6393,0,0,0,0,0,0,-5.5916,-5.5925,-5.6051,-5.6055,-5.5952,-5.5993,-5.5999,-5.6033,-5.6056,-5.6055,-5.6018,-5.6012,-5.607,-5.6078,-5.6086,-5.6219,-5.6096,-5.6102,-5.6105,-5.6385,-5.639,-5.6394,0,0,0,0,0,0,-5.5912,-5.5928,-5.6049,-5.5989,-5.6003,-5.6001,-5.6039,-5.6036,-5.6057,-5.606,-5.6059,-5.6041,-5.6068,-5.6078,-5.6161,-5.622,-5.6104,-5.611,-5.638,-5.6386,-5.6392,-5.6487,0,0,0,0,0,0,-5.5908,-5.5927,-5.5971,-5.599,-5.6006,-5.6125,-5.6043,-5.604,-5.6068,-5.606,-5.6081,-5.6081,-5.6065,-5.6153,-5.6167,-5.6226,-5.6114,-5.6374,-5.6383,-5.639,-5.6478,-5.6495,-5.651,0,0,0,0,0,-5.5902,-5.5995,-5.5974,-5.599,-5.6062,-5.6129,-5.6138,-5.6119,-5.6073,-5.6117,-5.6118,-5.608,-5.6211,-5.6162,-5.6177,-5.6239,-5.6371,-5.638,-5.6389,-5.6471,-5.6492,-5.651,0,0,0,0,0,0,-5.5983,-5.5998,-5.5974,-5.6077,-5.6102,-5.6117,-5.6171,-5.6142,-5.618,-5.6171,-5.6145,-5.615,-5.6239,-5.6247,-5.6192,-5.6348,-5.6283,-5.6296,-5.634,-5.636,-5.6375,-5.6371,-5.6119,0,0,0,0,0,-5.6013,-5.6067,-5.6076,-5.6166,-5.618,-5.6174,-5.6202,-5.6186,-5.621,-5.622,-5.6228,-5.6252,-5.6298,-5.6329,-5.6372,-5.6479,-5.6481,-5.6528,-5.6544,-5.6557,-5.6568,-5.6623,-5.6644,-5.6425,-5.6425,-5.6425,0,0,-5.6075,-5.609,-5.6125,-5.6183,-5.62,-5.6256,-5.6183,-5.6245,-5.6285,-5.6229,-5.6308,-5.6315,-5.6339,-5.6434,-5.6476,-5.6444,-5.6629,-5.6569,-5.658,-5.6584,-5.6635,-5.6656,-5.6674,-5.6431,-5.643,-5.6429,0,0,-5.6216,-5.6234,-5.631,-5.6329,-5.6357,-5.6351,-5.637,-5.6388,-5.6391,-5.647,-5.6428,-5.6475,-5.6556,-5.6575,-5.6595,-5.6742,-5.6708,-5.6756,-5.6839,-5.6893,-5.691,-5.6925,-5.6976,-5.6995,-5.6768,-5.6768,-5.6768,0,-5.629,-5.6373,-5.6352,-5.6417,-5.6442,-5.6395,-5.647,-5.6489,-5.6529,-5.6547,-5.651,-5.661,-5.6624,-5.6721,-5.6757,-5.6776,-5.6794,-5.6754,-5.691,-5.6925,-5.6939,-5.6987,-5.7006,-5.6774,-5.6773,-5.6772,-5.6772,0,-5.6461,-5.6519,-5.6577,-5.6617,-5.6649,-5.6719,-5.6707,-5.6742,-5.6722,-5.672,-5.68,-5.6814,-5.6859,-5.688,-5.6862,-5.6975,-5.6954,-5.6914,-5.6848,-5.6965,-5.701,-5.7029,-5.6782,-5.678,-5.6778,-5.6777,0,0,-5.6656,-5.6683,-5.6705,-5.6722,-5.6748,-5.6792,-5.6858,-5.6902,-5.6932,-5.696,-5.7014,-5.7083,-5.7046,-5.7069,-5.7052,-5.7099,-5.7213,-5.7053,-5.7053,-5.7081,-5.7336,-5.7366,-5.7388,-5.719,-5.7193,-5.7196,-5.7334,0,-5.6797,-5.6913,-5.6896,-5.7008,-5.7059,-5.7014,-5.7072,-5.7093,-5.7093,-5.7135,-5.7134,-5.7183,-5.7131,-5.7144,-5.7189,-5.7189,-5.7263,-5.7179,-5.7238,-5.7241,-5.7233,-5.7412,-5.7443,-5.7573,-5.7351,-5.7354,-5.7357,0,-5.6977,-5.7013,-5.713,-5.7146,-5.7167,-5.722,-5.7258,-5.73,-5.7322,-5.7318,-5.7344,-5.7317,-5.7381,-5.7315,-5.7402,-5.7345,-5.7368,-5.7371,-5.7376,-5.738,-5.7306,-5.742,-5.7614,-5.7633,-5.7384,-5.7382,-5.738,0,-5.7106,-5.7183,-5.7263,-5.7279,-5.7301,-5.7338,-5.7348,-5.7367,-5.7394,-5.7427,-5.7444,-5.7483,-5.7505,-5.7535,-5.7519,-5.7472,-5.7609,-5.7541,-5.7606,-5.7607,-5.7637,-5.7635,-5.7836,-5.7653,-5.7653,-5.7652,-5.7652,0,-5.7264,-5.7337,-5.7321,-5.737,-5.745,-5.7428,-5.7507,-5.7511,-5.7528,-5.7576,-5.7539,-5.7584,-5.7561,-5.7603,-5.7591,-5.7664,-5.7675,-5.7672,-5.7668,-5.7675,-5.7675,-5.7689,-5.7679,-5.7657,-5.7656,-5.7655,-5.7654,0,-5.7422,-5.7414,-5.7498,-5.7511,-5.7516,-5.7574,-5.7585,-5.7629,-5.7626,-5.7686,-5.7699,-5.7693,-5.7741,-5.7729,-5.7781,-5.7773,-5.7865,-5.785,-5.7858,-5.7854,-5.7919,-5.7913,-5.8136,-5.8163,-5.7963,-5.7965,-5.7967,0,-5.7523,-5.7579,-5.7598,-5.7628,-5.7641,-5.769,-5.7717,-5.7697,-5.7727,-5.7755,-5.7796,-5.7841,-5.7877,-5.7956,-5.7955,-5.7994,-5.7979,-5.8055,-5.7985,-5.799,-5.7979,-5.7976,-5.798,-5.8068,-5.8071,-5.8072,-5.8074,0,-5.7704,-5.7697,-5.7739,-5.7779,-5.7812,-5.7843,-5.7869,-5.7895,-5.7877,-5.7912,-5.7961,-5.7989,-5.8042,-5.8087,-5.8123,-5.8131,-5.8099,-5.8096,-5.8113,-5.8121,-5.8123,-5.8121,-5.7895,-5.8091,-5.8089,-5.8088,-5.8087,-5.8086,-5.7836,-5.7882,-5.7903,-5.795,-5.7968,-5.7993,-5.8035,-5.8037,-5.8078,-5.8121,-5.8106,-5.8162,-5.818,-5.8225,-5.8239,-5.8281,-5.8252,-5.8277,-5.8283,-5.829,-5.8297,-5.8117,-5.8288,-5.8287,-5.8287,-5.8286,-5.8286,0,-5.8013,-5.8024,-5.8068,-5.8106,-5.8143,-5.811,-5.8137,-5.8169,-5.822,-5.8241,-5.8276,-5.8331,-5.8374,-5.8377,-5.8416,-5.845,-5.8436,-5.8461,-5.8458,-5.846,-5.8321,-5.8302,-5.8471,-5.8471,-5.8471,-5.8471,-5.8471,-5.8471,-5.811,-5.8186,-5.8181,-5.8265,-5.8275,-5.833,-5.8348,-5.8371,-5.8387,-5.8451,-5.8487,-5.8489,-5.8501,-5.8541,-5.8578,-5.8578,-5.8594,-5.8624,-5.8618,-5.8488,-5.847,-5.8452,-5.8434,-5.8628,-5.8628,-5.8752,-5.8753,-5.8754]}]]